Helicity
131 170 248 268 279 218 160 158 176 92 54 43 37 43 42 49 46 37 27 32 24 19 30 31 45 39 29 33 36 35 37 44 48 44 14 -8 19 24 20 14 7 11 -7
134 174 228 278 241 202 176 141 172 190 135 56 41 42 43 40 49 42 16 26 21 10 22 32 27 23 31 33 26 22 23 32 36 44 30 3 -8 15 21 16 14 5 -3
182 226 238 237 227 200 174 151 135 160 204 174 77 52 46 46 35 36 40 25 18 -1 21 36 25 23 16 16 12 17 24 30 39 43 43 31 7 9 -1 16 19 5 -1
282 293 272 203 212 193 185 157 137 121 151 181 167 115 71 49 55 31 26 27 28 -5 30 42 42 30 17 4 -4 -0 7 20 26 38 40 44 16 22 -1 -0 18 15 8
370 375 260 222 199 199 195 172 154 147 126 170 170 159 116 102 71 67 47 42 33 1 5 33 38 38 23 11 3 -11 -15 -1 11 9 24 32 27 35 27 6 8 25 18
359 426 267 229 228 209 205 203 157 139 124 123 158 164 165 110 88 79 82 77 71 32 -16 18 21 25 23 20 16 -14 -27 -14 -17 -7 -1 21 41 46 38 39 12 21 35
346 379 435 263 255 256 221 216 183 138 142 122 144 172 160 142 128 109 84 77 80 82 26 -17 16 5 7 18 13 17 -19 -31 -31 -29 -0 6 16 47 55 60 41 17 29
286 302 286 367 311 270 229 228 196 174 150 141 145 155 169 155 139 145 119 96 85 99 79 -6 1 8 -0 10 15 8 -5 -15 -30 -29 -17 9 -1 10 38 56 68 41 26
282 249 245 228 228 293 208 230 226 231 214 181 149 149 162 162 156 136 142 124 105 102 97 87 -5 -8 -1 4 17 10 5 4 -15 -30 -26 -21 -2 -10 8 37 64 65 43
301 272 253 246 240 240 253 247 204 195 190 193 185 179 172 176 164 170 146 136 122 102 102 101 80 55 -5 1 14 9 9 4 -2 -21 -38 -41 -0 8 31 26 34 52 49
318 299 269 255 229 209 205 242 261 248 218 217 215 212 207 181 175 170 150 135 129 106 89 92 99 54 47 46 39 44 31 5 -0 -7 -27 -42 -20 11 24 29 32 67 62
297 295 272 259 259 235 215 240 232 246 246 229 236 229 189 186 180 148 144 163 165 147 111 116 126 114 112 103 59 65 44 27 6 -1 -6 -26 -23 -6 -1 16 32 74 79
241 244 238 227 244 242 232 218 200 204 217 222 233 208 193 166 162 169 161 178 177 199 178 166 167 155 137 121 102 57 58 42 22 13 -3 -12 -18 -6 -14 -9 8 56 84
229 217 202 186 168 180 166 182 186 193 188 189 195 211 189 173 177 167 174 197 204 199 188 187 167 177 166 148 120 97 47 26 30 31 21 1 -15 -7 -13 -16 -9 26 70
207 199 188 168 158 146 142 134 151 171 183 177 184 185 169 165 173 171 177 187 198 197 188 183 177 172 173 154 141 111 81 44 34 13 28 15 7 -1 -3 -2 -13 -2 37
187 190 176 163 144 130 135 133 119 125 141 155 167 181 172 154 165 181 189 205 214 216 217 194 180 181 164 147 142 124 104 77 58 31 37 16 16 11 -1 3 25 12 23
150 149 162 158 152 139 127 123 128 136 146 161 166 180 185 189 194 195 199 211 210 198 192 184 182 160 158 145 121 116 118 104 80 62 67 58 50 31 11 -20 23 35 41
172 159 173 170 164 151 137 127 133 140 135 150 171 179 191 186 183 164 169 181 187 179 177 176 167 166 159 154 118 108 107 118 115 101 86 84 68 43 57 24 9 28 30
159 158 164 164 161 147 136 136 140 145 162 168 171 178 183 180 184 150 160 165 168 159 170 179 161 153 148 150 140 112 101 99 113 130 105 100 94 78 36 70 28 33 21
184 170 162 156 144 136 118 105 104 96 107 119 140 162 183 182 189 167 164 167 160 146 165 177 165 162 139 145 136 121 117 106 95 111 110 120 129 120 109 71 91 60 30
208 185 158 150 162 159 164 154 157 152 148 140 145 144 150 155 169 156 162 166 165 151 150 165 147 157 146 157 99 117 120 125 130 124 134 122 162 153 162 138 126 110 94
183 174 161 150 145 153 149 143 138 129 132 126 146 153 169 174 174 155 157 162 169 167 180 175 158 142 128 146 120 69 97 148 224 167 140 144 155 165 182 181 147 144 149
181 150 148 142 134 130 114 105 108 100 106 116 138 141 164 165 162 164 173 175 171 162 164 165 161 175 169 128 149 122 126 152 170 215 291 200 152 162 156 167 161 167 172
153 166 161 143 129 122 114 113 105 94 98 100 108 121 140 148 148 139 139 153 165 163 171 168 173 163 165 174 154 175 143 119 124 166 205 247 288 274 200 176 181 184 190
196 170 163 148 133 119 112 104 102 103 92 90 99 128 136 139 149 149 142 141 135 130 141 146 151 152 148 154 160 164 151 137 105 93 88 155 181 226 249 252 241 162 169
213 192 169 151 151 124 109 102 99 104 114 124 129 133 132 128 132 140 150 148 149 144 143 144 147 148 143 138 140 142 145 157 161 145 99 40 123 75 154 172 195 159 149
Wind_Speed
21 22 25 21 20 18 13 13 15 15 16 20 20 19 16 16 19 22 23 26 29 31 34 33 32 33 38 42 45 49 53 55 55 56 58 58 59 60 60 61 62 58 56
14 21 24 22 18 17 14 12 15 17 17 17 19 18 18 17 18 20 22 23 26 28 33 33 33 33 35 38 41 45 48 51 53 53 56 56 57 59 61 60 62 60 58
17 20 24 19 17 16 15 13 14 15 17 19 19 18 17 17 18 19 21 22 23 25 29 32 33 33 33 35 38 41 45 47 49 52 54 55 55 55 57 60 59 59 58
24 23 22 18 17 16 15 14 14 14 17 19 21 22 19 19 19 20 22 23 23 21 26 30 32 31 31 33 35 38 43 45 45 47 51 53 53 52 54 56 58 57 57
21 24 19 17 18 17 16 16 16 16 17 20 21 22 22 21 20 21 22 23 24 22 21 25 29 31 31 32 33 36 38 42 44 41 46 49 52 52 51 53 56 56 56
22 23 18 16 18 18 17 17 17 17 17 20 23 22 23 22 22 22 22 23 24 24 21 21 22 26 28 30 32 33 36 38 43 43 42 45 49 49 48 49 52 54 55
22 22 21 16 17 20 19 20 19 19 19 20 22 23 24 24 23 23 23 24 25 25 24 19 21 21 23 27 29 31 34 36 38 41 43 43 44 47 47 46 48 51 52
17 24 25 24 23 23 23 23 23 23 23 24 24 24 23 25 24 24 24 24 25 26 27 23 18 20 19 22 26 28 29 32 36 39 40 41 40 44 45 44 44 47 50
22 21 24 26 27 29 26 27 28 27 27 27 28 27 25 24 26 26 26 26 26 26 27 27 22 20 20 19 23 27 27 28 32 35 39 41 37 40 42 42 42 43 46
24 26 27 25 28 29 30 30 28 25 24 26 29 29 27 26 26 27 28 28 29 27 27 27 26 25 22 23 22 25 30 28 30 32 35 37 35 37 37 39 39 40 42
27 26 28 28 29 31 29 29 29 28 27 27 28 29 30 30 29 28 29 30 30 29 28 28 27 28 26 23 23 27 29 32 31 31 35 35 34 31 31 35 35 35 38
33 30 27 28 29 30 32 31 30 30 30 30 31 32 31 33 32 33 30 32 33 34 33 32 31 30 27 28 27 25 27 30 32 34 33 35 37 29 28 30 31 32 33
29 29 28 28 28 30 32 32 31 30 31 32 32 31 32 30 33 35 35 35 37 38 37 38 36 32 33 30 31 27 27 28 31 32 32 31 36 30 28 28 28 27 29
28 28 28 28 27 28 29 30 30 30 30 32 32 34 33 34 33 35 37 39 38 41 42 41 43 42 38 36 35 35 21 29 25 29 28 26 30 31 26 28 27 25 24
27 27 28 28 28 26 27 28 29 29 29 32 33 34 36 36 36 36 39 39 40 42 44 46 45 45 46 43 40 40 38 19 26 19 21 21 20 26 24 25 26 25 20
28 28 28 29 28 28 27 28 28 29 30 31 33 36 36 38 39 39 41 44 45 46 47 47 49 48 48 48 45 44 48 51 26 7 8 12 24 24 27 24 19 20 18
30 29 29 31 30 31 30 29 30 31 32 32 34 36 38 39 40 41 42 44 48 48 48 48 49 50 49 51 51 50 51 52 53 43 11 12 8 30 30 33 24 16 14
32 33 33 33 33 33 33 33 33 33 33 34 35 36 37 38 40 39 41 44 47 48 49 50 51 54 53 54 57 57 55 54 55 52 44 33 11 5 31 21 32 30 19
35 33 34 34 34 35 35 35 36 34 35 36 36 37 39 39 40 41 42 45 47 47 48 50 51 52 56 59 62 62 60 59 54 53 54 40 31 15 17 27 30 26 34
36 36 36 36 37 36 37 37 36 35 36 36 38 39 42 43 43 43 44 46 47 48 50 51 51 51 52 60 64 67 67 63 58 50 53 52 41 31 23 14 24 42 15
41 40 40 39 40 40 42 43 44 45 43 42 42 41 43 45 46 46 47 48 49 49 50 51 52 53 54 60 61 61 63 61 57 55 51 51 46 38 32 29 38 30 36
43 41 41 41 40 41 41 41 43 44 44 43 45 45 46 47 48 47 49 50 51 53 53 54 52 53 53 53 56 58 64 58 57 58 55 54 51 51 46 40 38 40 42
46 43 42 41 40 40 40 41 42 42 44 47 50 51 51 49 49 49 50 51 52 52 54 54 52 52 57 53 55 52 58 60 62 56 55 58 60 56 56 55 49 48 47
44 43 42 41 40 41 41 43 45 47 50 50 51 52 52 51 51 50 51 52 53 53 54 55 54 54 53 57 53 52 51 53 60 65 57 58 61 60 61 62 62 58 54
42 42 41 40 42 42 42 43 45 47 48 50 51 54 53 53 52 52 53 54 55 55 55 56 56 56 55 56 57 57 56 56 56 61 73 71 70 64 69 71 70 70 66
39 40 41 42 43 42 44 46 47 49 51 53 55 56 56 56 55 55 56 57 57 57 58 59 59 60 60 60 60 60 61 62 62 64 71 71 77 79 76 79 76 71 70
Wind_Direction
251 261 265 282 289 302 325 355 3 11 16 23 25 19 360 352 0 11 16 27 40 49 57 50 42 41 44 43 42 43 51 54 53 51 49 51 57 55 64 65 67 79 85
249 263 267 276 290 302 320 340 350 3 2 7 15 9 8 357 344 351 8 9 26 43 62 54 49 48 45 41 40 40 43 49 47 47 45 45 53 50 56 66 67 76 83
254 264 267 282 294 300 319 330 344 353 352 355 2 7 358 344 350 345 351 354 359 34 57 58 58 52 46 40 37 38 38 44 49 51 47 50 59 46 53 58 68 71 78
255 263 269 281 288 299 306 319 328 344 347 344 347 358 356 350 344 350 346 350 338 14 52 61 62 56 47 39 39 33 33 41 45 49 47 46 49 42 48 51 62 71 74
260 262 272 281 283 291 301 310 319 323 322 328 333 338 350 356 348 346 338 329 337 346 28 52 62 65 54 43 39 39 31 31 36 40 43 45 53 47 48 51 63 68 71
262 265 275 279 279 287 294 300 308 318 322 316 314 324 335 346 351 349 351 335 331 326 357 42 43 56 57 47 42 41 35 32 36 38 28 42 46 45 44 50 56 64 65
261 266 276 284 286 285 291 292 297 306 312 316 315 314 317 325 336 340 344 344 330 325 326 19 33 38 42 43 36 46 38 33 32 33 36 37 42 45 45 50 53 61 61
271 267 274 278 281 284 287 287 291 297 301 302 307 312 317 317 323 327 328 336 330 329 326 332 17 28 28 27 30 29 37 37 29 29 29 33 38 43 45 51 55 57 60
271 277 279 280 282 282 288 291 291 290 291 295 296 301 306 312 316 320 324 323 323 328 326 325 335 3 14 20 11 7 20 28 21 14 15 26 41 35 48 52 55 57 57
271 273 276 280 282 283 285 289 291 295 301 298 296 297 301 306 311 313 314 318 313 322 324 329 326 337 354 347 353 0 354 358 3 5 4 17 32 25 50 55 52 53 54
269 274 278 277 279 280 288 292 289 290 294 297 297 296 296 300 303 309 312 314 316 317 324 325 328 326 338 357 349 340 345 345 344 351 344 354 13 25 35 46 50 58 55
259 267 278 279 280 282 285 287 288 289 290 292 293 293 293 295 297 295 306 304 306 307 309 315 319 319 337 339 351 344 336 338 339 333 342 339 347 13 22 30 48 56 51
260 267 275 281 283 282 282 286 288 289 288 289 292 294 294 298 297 294 296 299 297 299 302 303 309 321 320 328 329 340 334 328 328 334 334 342 336 359 5 10 23 49 47
259 266 275 282 286 289 289 287 288 287 290 291 293 295 293 292 297 298 297 295 296 297 297 300 301 306 312 316 319 318 341 325 333 328 335 341 341 345 353 355 2 26 49
260 267 274 282 287 290 291 292 291 290 291 292 294 296 295 293 294 296 297 298 299 298 297 297 298 299 299 304 308 305 308 333 325 347 348 335 350 348 356 350 349 357 30
262 267 273 279 285 289 291 291 291 294 294 294 295 295 296 295 293 294 294 294 295 295 296 295 294 294 294 295 297 298 290 285 316 338 1 355 322 332 337 347 355 355 6
262 266 272 277 283 285 287 290 293 294 295 295 295 296 297 297 296 296 295 295 294 294 294 294 292 292 291 291 292 291 289 284 282 297 313 323 330 310 322 322 336 344 348
261 266 272 276 280 282 285 287 289 292 295 296 296 297 298 299 300 299 298 298 297 297 295 294 293 290 291 290 287 287 288 288 285 288 295 301 303 209 303 326 321 323 324
259 263 268 274 278 281 283 286 288 291 293 293 295 297 298 300 301 300 300 300 300 300 301 299 296 295 291 290 288 286 286 287 290 290 287 295 297 290 198 301 310 322 309
257 263 268 273 277 281 282 282 285 289 292 294 294 295 297 297 299 299 299 300 301 301 301 301 299 299 298 295 291 287 285 286 287 290 288 288 290 293 286 256 298 299 316
258 261 266 271 276 279 279 280 281 282 285 289 293 296 297 297 297 297 297 298 300 300 301 302 300 298 298 300 294 292 290 286 286 285 286 287 286 287 287 284 288 292 296
255 259 264 269 274 279 281 282 283 283 285 287 290 292 296 296 297 296 296 296 298 296 298 300 301 298 299 305 298 296 291 292 288 286 285 284 284 285 283 283 281 283 285
254 258 262 267 272 277 281 283 284 285 286 285 288 290 293 295 296 296 297 296 296 297 296 298 300 300 296 299 302 296 293 289 294 293 288 286 284 283 283 282 281 279 280
254 257 261 266 271 276 281 283 284 283 282 285 287 290 292 294 295 296 295 295 295 296 296 297 299 299 299 295 298 301 297 295 292 290 290 290 291 288 286 283 282 281 278
251 254 260 266 271 276 281 284 285 285 286 287 289 290 291 293 294 295 295 295 294 295 295 296 296 296 297 295 295 296 296 295 292 289 287 286 288 289 286 285 285 281 279
252 256 260 265 271 277 280 283 285 286 287 287 288 289 290 291 292 294 294 294 293 293 293 294 294 293 294 294 294 293 291 291 291 291 288 289 287 284 286 285 284 285 281